Time,TemperatureF,DewpointF,PressureIn,WindDirection,WindDirectionDegrees,WindSpeedMPH,WindSpeedGustMPH,Humidity,HourlyPrecipIn,Conditions,Clouds,dailyrainin,SoftwareType,DateUTC
2013-08-06 00:04:00,74.4,74.0,30.02,North,360,0.0,-999.0,97,-99.99,,,0.00,weatherlink.com 1.10,2013-08-06 04:04:00,
2013-08-06 00:19:00,74.2,73.0,30.01,North,360,0.0,-999.0,97,-99.99,,,0.00,weatherlink.com 1.10,2013-08-06 04:19:00,
2013-08-06 00:34:00,74.2,73.0,30.00,North,360,0.0,-999.0,97,-99.99,,,0.00,weatherlink.com 1.10,2013-08-06 04:34:00,
2013-08-06 00:49:00,74.1,73.0,30.00,North,360,0.0,-999.0,97,-99.99,,,0.00,weatherlink.com 1.10,2013-08-06 04:49:00,
2013-08-06 01:04:00,74.1,73.0,30.00,North,360,0.0,-999.0,97,-99.99,,,0.00,weatherlink.com 1.10,2013-08-06 05:04:00,
2013-08-06 01:19:00,73.7,73.0,29.99,North,360,0.0,-999.0,97,-99.99,,,0.00,weatherlink.com 1.10,2013-08-06 05:19:00,
2013-08-06 01:34:00,73.8,73.0,29.99,North,360,0.0,-999.0,97,-99.99,,,0.00,weatherlink.com 1.10,2013-08-06 05:34:00,
2013-08-06 01:49:00,73.3,72.0,29.98,North,360,0.0,-999.0,97,-99.99,,,0.00,weatherlink.com 1.10,2013-08-06 05:49:00,
2013-08-06 02:04:00,73.4,73.0,29.97,North,360,0.0,-999.0,97,-99.99,,,0.00,weatherlink.com 1.10,2013-08-06 06:04:00,
2013-08-06 02:19:00,73.2,72.0,29.96,North,360,0.0,-999.0,97,-99.99,,,0.00,weatherlink.com 1.10,2013-08-06 06:19:00,
2013-08-06 02:34:00,73.5,73.0,29.95,North,360,0.0,-999.0,97,-99.99,,,0.00,weatherlink.com 1.10,2013-08-06 06:34:00,
2013-08-06 02:49:00,73.5,73.0,29.94,North,360,0.0,-999.0,97,-99.99,,,0.00,weatherlink.com 1.10,2013-08-06 06:49:00,
2013-08-06 03:04:00,73.8,73.0,29.94,North,360,0.0,-999.0,97,-99.99,,,0.00,weatherlink.com 1.10,2013-08-06 07:04:00,
2013-08-06 03:19:00,73.4,73.0,29.94,North,360,0.0,-999.0,97,-99.99,,,0.00,weatherlink.com 1.10,2013-08-06 07:19:00,
2013-08-06 03:34:00,73.1,72.0,29.94,North,360,0.0,-999.0,97,-99.99,,,0.00,weatherlink.com 1.10,2013-08-06 07:34:00,
2013-08-06 03:49:00,73.0,72.0,29.94,North,360,0.0,-999.0,97,-99.99,,,0.00,weatherlink.com 1.10,2013-08-06 07:49:00,
2013-08-06 04:04:00,73.0,72.0,29.94,North,360,0.0,-999.0,97,-99.99,,,0.00,weatherlink.com 1.10,2013-08-06 08:04:00,
2013-08-06 04:19:00,72.8,72.0,29.95,North,360,0.0,-999.0,97,-99.99,,,0.00,weatherlink.com 1.10,2013-08-06 08:19:00,
2013-08-06 04:34:00,72.7,72.0,29.95,North,360,0.0,-999.0,97,-99.99,,,0.00,weatherlink.com 1.10,2013-08-06 08:34:00,
2013-08-06 04:49:00,72.8,72.0,29.96,North,360,0.0,-999.0,97,-99.99,,,0.00,weatherlink.com 1.10,2013-08-06 08:49:00,
2013-08-06 05:04:00,72.9,72.0,29.95,North,360,0.0,-999.0,97,-99.99,,,0.00,weatherlink.com 1.10,2013-08-06 09:04:00,
2013-08-06 05:19:00,72.9,72.0,29.95,North,360,0.0,-999.0,97,-99.99,,,0.00,weatherlink.com 1.10,2013-08-06 09:19:00,
2013-08-06 05:34:00,72.8,72.0,29.95,North,360,0.0,-999.0,97,-99.99,,,0.00,weatherlink.com 1.10,2013-08-06 09:34:00,
2013-08-06 05:49:00,72.7,72.0,29.96,North,360,0.0,-999.0,97,-99.99,,,0.00,weatherlink.com 1.10,2013-08-06 09:49:00,
2013-08-06 06:04:00,72.5,72.0,29.97,North,360,0.0,-999.0,98,-99.99,,,0.00,weatherlink.com 1.10,2013-08-06 10:04:00,
2013-08-06 06:19:00,72.5,72.0,29.97,North,360,0.0,-999.0,98,-99.99,,,0.00,weatherlink.com 1.10,2013-08-06 10:19:00,
2013-08-06 06:34:00,72.6,72.0,29.97,North,360,0.0,-999.0,98,-99.99,,,0.00,weatherlink.com 1.10,2013-08-06 10:34:00,
2013-08-06 06:49:00,72.6,72.0,29.97,North,360,0.0,-999.0,98,-99.99,,,0.00,weatherlink.com 1.10,2013-08-06 10:49:00,
2013-08-06 07:04:00,72.7,72.0,29.98,North,360,0.0,-999.0,98,-99.99,,,0.00,weatherlink.com 1.10,2013-08-06 11:04:00,
2013-08-06 07:19:00,72.8,72.0,29.99,North,360,0.0,-999.0,97,-99.99,,,0.00,weatherlink.com 1.10,2013-08-06 11:19:00,
2013-08-06 07:34:00,72.9,72.0,29.99,North,360,0.0,-999.0,97,-99.99,,,0.00,weatherlink.com 1.10,2013-08-06 11:34:00,
2013-08-06 07:49:00,73.3,73.0,29.99,North,360,0.0,-999.0,98,-99.99,,,0.00,weatherlink.com 1.10,2013-08-06 11:49:00,
2013-08-06 08:04:00,73.6,73.0,29.99,North,360,0.0,-999.0,97,-99.99,,,0.00,weatherlink.com 1.10,2013-08-06 12:04:00,
2013-08-06 08:19:00,74.2,74.0,29.98,North,360,0.0,-999.0,98,-99.99,,,0.00,weatherlink.com 1.10,2013-08-06 12:19:00,
2013-08-06 08:34:00,75.0,74.0,29.99,North,360,0.0,-999.0,97,-99.99,,,0.00,weatherlink.com 1.10,2013-08-06 12:34:00,
2013-08-06 08:49:00,75.8,75.0,29.99,North,360,0.0,-999.0,98,-99.99,,,0.00,weatherlink.com 1.10,2013-08-06 12:49:00,
2013-08-06 09:04:00,76.6,76.0,29.99,North,360,0.0,-999.0,98,-99.99,,,0.00,weatherlink.com 1.10,2013-08-06 13:04:00,
2013-08-06 09:19:00,77.2,76.0,30.00,North,360,0.0,-999.0,97,-99.99,,,0.00,weatherlink.com 1.10,2013-08-06 13:19:00,
2013-08-06 09:34:00,77.6,77.0,30.01,North,360,0.0,-999.0,97,-99.99,,,0.00,weatherlink.com 1.10,2013-08-06 13:34:00,
2013-08-06 09:49:00,78.1,77.0,30.01,North,360,0.0,-999.0,97,-99.99,,,0.00,weatherlink.com 1.10,2013-08-06 13:49:00,
2013-08-06 10:05:00,79.4,78.0,30.01,North,360,0.0,-999.0,94,-99.99,,,0.00,weatherlink.com 1.10,2013-08-06 14:05:00,
2013-08-06 10:20:00,80.0,78.0,30.01,North,360,0.0,-999.0,92,-99.99,,,0.00,weatherlink.com 1.10,2013-08-06 14:20:00,
2013-08-06 10:35:00,81.1,78.0,30.01,North,360,0.0,-999.0,89,-99.99,,,0.00,weatherlink.com 1.10,2013-08-06 14:35:00,
2013-08-06 10:50:00,82.3,79.0,30.02,North,360,0.0,-999.0,88,-99.99,,,0.00,weatherlink.com 1.10,2013-08-06 14:50:00,
2013-08-06 11:05:00,83.2,78.0,30.02,North,360,0.0,-999.0,85,-99.99,,,0.00,weatherlink.com 1.10,2013-08-06 15:05:00,
2013-08-06 11:20:00,84.3,79.0,30.02,North,360,0.0,-999.0,84,-99.99,,,0.00,weatherlink.com 1.10,2013-08-06 15:20:00,
2013-08-06 11:35:00,85.0,79.0,30.01,North,360,0.0,-999.0,82,-99.99,,,0.00,weatherlink.com 1.10,2013-08-06 15:35:00,
2013-08-06 11:50:00,85.9,79.0,30.01,North,360,1.0,-999.0,79,-99.99,,,0.00,weatherlink.com 1.10,2013-08-06 15:50:00,
2013-08-06 12:05:00,87.2,79.0,30.01,North,360,0.0,-999.0,77,-99.99,,,0.00,weatherlink.com 1.10,2013-08-06 16:05:00,
2013-08-06 12:20:00,87.9,79.0,30.00,North,360,0.0,-999.0,75,-99.99,,,0.00,weatherlink.com 1.10,2013-08-06 16:20:00,
2013-08-06 12:35:00,88.8,78.0,30.00,North,360,0.0,-999.0,71,-99.99,,,0.00,weatherlink.com 1.10,2013-08-06 16:35:00,
2013-08-06 12:50:00,89.1,78.0,29.99,North,360,0.0,-999.0,70,-99.99,,,0.00,weatherlink.com 1.10,2013-08-06 16:50:00,
2013-08-06 13:05:00,90.6,79.0,29.99,North,360,0.0,-999.0,69,-99.99,,,0.00,weatherlink.com 1.10,2013-08-06 17:05:00,
2013-08-06 13:20:00,90.9,79.0,29.99,North,360,0.0,-999.0,67,-99.99,,,0.00,weatherlink.com 1.10,2013-08-06 17:20:00,
2013-08-06 13:35:00,89.4,78.0,29.99,North,360,0.0,-999.0,69,-99.99,,,0.00,weatherlink.com 1.10,2013-08-06 17:35:00,
2013-08-06 13:50:00,89.0,78.0,29.99,North,360,0.0,-999.0,70,-99.99,,,0.00,weatherlink.com 1.10,2013-08-06 17:50:00,
2013-08-06 14:05:00,90.3,79.0,29.98,North,360,1.0,-999.0,69,-99.99,,,0.00,weatherlink.com 1.10,2013-08-06 18:05:00,
2013-08-06 14:20:00,89.0,78.0,29.98,North,360,0.0,-999.0,70,-99.99,,,0.00,weatherlink.com 1.10,2013-08-06 18:20:00,
2013-08-06 14:35:00,90.1,78.0,29.98,North,360,0.0,-999.0,68,-99.99,,,0.00,weatherlink.com 1.10,2013-08-06 18:35:00,
2013-08-06 14:50:00,89.4,78.0,29.97,North,360,0.0,-999.0,70,-99.99,,,0.00,weatherlink.com 1.10,2013-08-06 18:50:00,
2013-08-06 15:05:00,90.3,79.0,29.96,North,360,1.0,-999.0,70,-99.99,,,0.00,weatherlink.com 1.10,2013-08-06 19:05:00,
2013-08-06 15:20:00,89.3,79.0,29.96,North,360,0.0,-999.0,72,-99.99,,,0.00,weatherlink.com 1.10,2013-08-06 19:20:00,
2013-08-06 15:35:00,90.0,79.0,29.96,North,360,0.0,-999.0,70,-99.99,,,0.00,weatherlink.com 1.10,2013-08-06 19:35:00,
2013-08-06 15:50:00,88.9,79.0,29.96,North,360,0.0,-999.0,72,-99.99,,,0.00,weatherlink.com 1.10,2013-08-06 19:50:00,
2013-08-06 16:05:00,87.3,78.0,29.96,North,360,0.0,-999.0,73,-99.99,,,0.00,weatherlink.com 1.10,2013-08-06 20:05:00,
2013-08-06 16:20:00,86.1,78.0,29.95,North,360,1.0,-999.0,77,-99.99,,,0.00,weatherlink.com 1.10,2013-08-06 20:20:00,
2013-08-06 16:35:00,86.5,79.0,29.96,North,360,0.0,-999.0,78,-99.99,,,0.00,weatherlink.com 1.10,2013-08-06 20:35:00,
2013-08-06 16:50:00,87.7,79.0,29.96,North,360,0.0,-999.0,74,-99.99,,,0.00,weatherlink.com 1.10,2013-08-06 20:50:00,
2013-08-06 17:05:00,89.0,79.0,29.96,North,360,0.0,-999.0,72,-99.99,,,0.00,weatherlink.com 1.10,2013-08-06 21:05:00,
2013-08-06 17:20:00,88.4,79.0,29.97,North,360,0.0,-999.0,73,-99.99,,,0.00,weatherlink.com 1.10,2013-08-06 21:20:00,
2013-08-06 17:35:00,87.8,79.0,29.96,North,360,0.0,-999.0,76,-99.99,,,0.00,weatherlink.com 1.10,2013-08-06 21:35:00,
2013-08-06 17:50:00,86.6,77.0,29.95,North,360,0.0,-999.0,73,-99.99,,,0.00,weatherlink.com 1.10,2013-08-06 21:50:00,
2013-08-06 18:05:00,86.2,78.0,29.95,North,360,0.0,-999.0,76,-99.99,,,0.00,weatherlink.com 1.10,2013-08-06 22:05:00,
2013-08-06 18:20:00,86.1,77.0,29.95,North,360,0.0,-999.0,75,-99.99,,,0.00,weatherlink.com 1.10,2013-08-06 22:20:00,
2013-08-06 18:35:00,85.9,77.0,29.97,North,360,0.0,-999.0,74,-99.99,,,0.00,weatherlink.com 1.10,2013-08-06 22:35:00,
2013-08-06 18:50:00,85.7,77.0,29.97,North,360,0.0,-999.0,76,-99.99,,,0.00,weatherlink.com 1.10,2013-08-06 22:50:00,
2013-08-06 19:05:00,84.9,77.0,29.98,North,360,0.0,-999.0,77,-99.99,,,0.00,weatherlink.com 1.10,2013-08-06 23:05:00,
2013-08-06 19:20:00,84.3,78.0,29.97,North,360,0.0,-999.0,80,-99.99,,,0.00,weatherlink.com 1.10,2013-08-06 23:20:00,
2013-08-06 19:35:00,83.6,77.0,29.98,North,360,0.0,-999.0,81,-99.99,,,0.00,weatherlink.com 1.10,2013-08-06 23:35:00,
2013-08-06 19:50:00,82.9,77.0,29.99,North,360,0.0,-999.0,82,-99.99,,,0.00,weatherlink.com 1.10,2013-08-06 23:50:00,
2013-08-06 20:05:00,82.1,77.0,29.98,North,360,0.0,-999.0,84,-99.99,,,0.00,weatherlink.com 1.10,2013-08-07 00:05:00,
2013-08-06 20:20:00,81.4,77.0,29.98,North,360,0.0,-999.0,86,-99.99,,,0.00,weatherlink.com 1.10,2013-08-07 00:20:00,
2013-08-06 20:35:00,80.7,77.0,29.98,North,360,0.0,-999.0,87,-99.99,,,0.00,weatherlink.com 1.10,2013-08-07 00:35:00,
2013-08-06 20:50:00,80.5,77.0,29.99,North,360,0.0,-999.0,88,-99.99,,,0.00,weatherlink.com 1.10,2013-08-07 00:50:00,
2013-08-06 21:05:00,80.4,77.0,29.99,North,360,0.0,-999.0,88,-99.99,,,0.00,weatherlink.com 1.10,2013-08-07 01:05:00,
2013-08-06 21:20:00,80.2,76.0,30.00,North,360,0.0,-999.0,88,-99.99,,,0.00,weatherlink.com 1.10,2013-08-07 01:20:00,
2013-08-06 21:35:00,80.2,77.0,30.00,North,360,0.0,-999.0,89,-99.99,,,0.00,weatherlink.com 1.10,2013-08-07 01:35:00,
2013-08-06 21:50:00,79.9,77.0,30.00,North,360,0.0,-999.0,89,-99.99,,,0.00,weatherlink.com 1.10,2013-08-07 01:50:00,
2013-08-06 22:05:00,79.6,77.0,30.01,North,360,0.0,-999.0,90,-99.99,,,0.00,weatherlink.com 1.10,2013-08-07 02:05:00,
2013-08-06 22:20:00,79.4,76.0,30.01,North,360,0.0,-999.0,90,-99.99,,,0.00,weatherlink.com 1.10,2013-08-07 02:20:00,
2013-08-06 22:35:00,79.2,76.0,30.01,North,360,0.0,-999.0,91,-99.99,,,0.00,weatherlink.com 1.10,2013-08-07 02:35:00,
2013-08-06 22:50:00,79.3,77.0,30.02,North,360,0.0,-999.0,91,-99.99,,,0.00,weatherlink.com 1.10,2013-08-07 02:50:00,
2013-08-06 23:05:00,79.3,76.0,30.02,North,360,0.0,-999.0,90,-99.99,,,0.00,weatherlink.com 1.10,2013-08-07 03:05:00,
2013-08-06 23:20:00,78.5,76.0,30.02,North,360,0.0,-999.0,91,-99.99,,,0.00,weatherlink.com 1.10,2013-08-07 03:20:00,
2013-08-06 23:35:00,77.8,75.0,30.02,North,360,0.0,-999.0,92,-99.99,,,0.00,weatherlink.com 1.10,2013-08-07 03:35:00,
2013-08-06 23:50:00,77.7,76.0,30.02,North,360,0.0,-999.0,93,-99.99,,,0.00,weatherlink.com 1.10,2013-08-07 03:50:00,